TAM9420 SBGR-SDSC

Flight info

Callsign TAM9420
Flight time 0h 33m
Altitude 16000
Route AMVU6A GERTU DCT DS002
Aircraft A21N/M-SDE2E3FGHIRWXY/LB1

Departure

Time 2026-04-22 16:56
Airport São Paulo/Guarulhos–Governor André Franco Montoro International Airport (SBGR)

Arrival

Time 2026-04-22 17:29
Airport Mário Pereira Lopes–São Carlos International Airport (SDSC)
Time Latitude Longitude Altitude Speed Heading
2026-04-22 16:29 -23.42439 -46.46022 2468 ft 0 kts 343°
2026-04-22 16:43 -23.42441 -46.46021 2466 ft 2 kts 343°
2026-04-22 16:44 -23.42456 -46.46016 2468 ft 2 kts 342°
2026-04-22 16:44 -23.42472 -46.46010 2469 ft 2 kts 340°
2026-04-22 16:44 -23.42487 -46.46004 2466 ft 2 kts 338°
2026-04-22 16:44 -23.42502 -46.45996 2466 ft 2 kts 333°
2026-04-22 16:45 -23.42516 -46.45987 2469 ft 2 kts 323°
2026-04-22 16:45 -23.42527 -46.45974 2466 ft 2 kts 290°
2026-04-22 16:45 -23.42528 -46.45960 2466 ft 1 kts 258°
2026-04-22 16:45 -23.42528 -46.45957 2466 ft 0 kts 256°
2026-04-22 16:49 -23.42528 -46.45958 2466 ft 1 kts 256°
2026-04-22 16:49 -23.42532 -46.45974 2466 ft 4 kts 253°
2026-04-22 16:49 -23.42546 -46.46022 2468 ft 10 kts 253°
2026-04-22 16:50 -23.42570 -46.46111 2468 ft 15 kts 253°
2026-04-22 16:50 -23.42610 -46.46220 2469 ft 15 kts 223°
2026-04-22 16:50 -23.42670 -46.46243 2469 ft 8 kts 206°
2026-04-22 16:50 -23.42707 -46.46307 2471 ft 12 kts 254°
2026-04-22 16:51 -23.42736 -46.46414 2468 ft 17 kts 253°
2026-04-22 16:51 -23.42775 -46.46556 2469 ft 21 kts 253°
2026-04-22 16:51 -23.42817 -46.46713 2471 ft 22 kts 253°
2026-04-22 16:51 -23.42863 -46.46882 2470 ft 24 kts 253°
2026-04-22 16:52 -23.42908 -46.47052 2471 ft 25 kts 254°
2026-04-22 16:52 -23.42960 -46.47244 2470 ft 28 kts 253°
2026-04-22 16:52 -23.43017 -46.47454 2471 ft 29 kts 254°
2026-04-22 16:52 -23.43074 -46.47668 2471 ft 30 kts 253°
2026-04-22 16:53 -23.43118 -46.47828 2470 ft 19 kts 253°
2026-04-22 16:53 -23.43156 -46.47971 2473 ft 20 kts 253°
2026-04-22 16:53 -23.43196 -46.48119 2472 ft 20 kts 253°
2026-04-22 16:53 -23.43226 -46.48228 2474 ft 12 kts 253°
2026-04-22 16:54 -23.43254 -46.48319 2473 ft 14 kts 240°
2026-04-22 16:54 -23.43299 -46.48353 2472 ft 0 kts 173°
2026-04-22 16:55 -23.43337 -46.48349 2469 ft 13 kts 172°
2026-04-22 16:55 -23.43413 -46.48288 2467 ft 14 kts 93°
2026-04-22 16:55 -23.43386 -46.48180 2469 ft 22 kts 74°
2026-04-22 16:55 -23.43270 -46.47751 2467 ft 99 kts 73°
2026-04-22 16:56 -23.43002 -46.46755 2574 ft 165 kts 73°
2026-04-22 16:56 -23.42682 -46.45458 3126 ft 187 kts 75°
2026-04-22 16:56 -23.42309 -46.44028 3752 ft 202 kts 73°
2026-04-22 16:56 -23.41868 -46.42558 4581 ft 214 kts 72°
2026-04-22 16:57 -23.41354 -46.40875 5107 ft 252 kts 72°
2026-04-22 16:57 -23.40786 -46.38984 5944 ft 271 kts 71°
2026-04-22 16:57 -23.40177 -46.36993 6992 ft 281 kts 69°
2026-04-22 16:57 -23.39314 -46.35093 8100 ft 287 kts 60°
2026-04-22 16:58 -23.38612 -46.33829 8828 ft 289 kts 58°
2026-04-22 16:58 -23.37163 -46.31341 9782 ft 295 kts 58°
2026-04-22 16:58 -23.36045 -46.29432 10448 ft 308 kts 58°
2026-04-22 16:58 -23.34847 -46.27379 10971 ft 331 kts 58°
2026-04-22 16:59 -23.33593 -46.25222 11743 ft 343 kts 58°
2026-04-22 16:59 -23.32300 -46.22997 12648 ft 350 kts 58°
2026-04-22 16:59 -23.30989 -46.20740 13620 ft 356 kts 58°
2026-04-22 16:59 -23.29656 -46.18444 14531 ft 362 kts 58°
2026-04-22 17:00 -23.28320 -46.16143 15313 ft 367 kts 58°
2026-04-22 17:00 -23.25559 -46.11392 16046 ft 374 kts 58°
2026-04-22 17:00 -23.24166 -46.08997 16085 ft 376 kts 58°
2026-04-22 17:01 -23.22762 -46.06600 16080 ft 377 kts 56°
2026-04-22 17:01 -23.21047 -46.04444 16082 ft 377 kts 39°
2026-04-22 17:01 -23.18786 -46.03022 16083 ft 376 kts 22°
2026-04-22 17:01 -23.16310 -46.02145 16080 ft 375 kts
2026-04-22 17:02 -23.13721 -46.02078 16081 ft 372 kts 349°
2026-04-22 17:02 -23.11305 -46.02993 16077 ft 368 kts 328°
2026-04-22 17:02 -23.09339 -46.04742 16083 ft 365 kts 311°
2026-04-22 17:02 -23.07674 -46.06830 16083 ft 365 kts 308°
2026-04-22 17:03 -23.06070 -46.08964 16081 ft 365 kts 307°
2026-04-22 17:03 -23.04462 -46.11104 16080 ft 365 kts 308°
2026-04-22 17:03 -23.02866 -46.13211 16079 ft 365 kts 308°
2026-04-22 17:03 -23.01249 -46.15331 16082 ft 365 kts 308°
2026-04-22 17:04 -22.99623 -46.17456 16079 ft 365 kts 308°
2026-04-22 17:04 -22.97993 -46.19581 16082 ft 365 kts 308°
2026-04-22 17:04 -22.96363 -46.21702 16081 ft 365 kts 308°
2026-04-22 17:04 -22.94735 -46.23820 16080 ft 365 kts 308°
2026-04-22 17:05 -22.93106 -46.25936 16079 ft 365 kts 308°
2026-04-22 17:05 -22.91494 -46.28028 16079 ft 365 kts 308°
2026-04-22 17:05 -22.89963 -46.30214 16078 ft 364 kts 300°
2026-04-22 17:05 -22.88756 -46.32618 16074 ft 362 kts 295°
2026-04-22 17:06 -22.87779 -46.34794 16074 ft 363 kts 294°
2026-04-22 17:06 -22.86690 -46.37263 16072 ft 363 kts 294°
2026-04-22 17:06 -22.85599 -46.39736 16070 ft 363 kts 294°
2026-04-22 17:06 -22.84506 -46.42202 16070 ft 363 kts 294°
2026-04-22 17:07 -22.83413 -46.44661 16066 ft 363 kts 294°
2026-04-22 17:07 -22.82312 -46.47135 16067 ft 363 kts 294°
2026-04-22 17:07 -22.81212 -46.49600 16063 ft 363 kts 294°
2026-04-22 17:07 -22.80109 -46.52071 16063 ft 363 kts 294°
2026-04-22 17:08 -22.79024 -46.54500 16061 ft 363 kts 294°
2026-04-22 17:08 -22.77923 -46.56962 16060 ft 363 kts 294°
2026-04-22 17:08 -22.76821 -46.59425 16059 ft 363 kts 294°
2026-04-22 17:08 -22.75716 -46.61894 16059 ft 363 kts 294°
2026-04-22 17:09 -22.74613 -46.64355 16056 ft 363 kts 294°
2026-04-22 17:09 -22.73511 -46.66816 16053 ft 363 kts 294°
2026-04-22 17:09 -22.72781 -46.68443 16053 ft 363 kts 294°
2026-04-22 17:09 -22.71306 -46.71731 16054 ft 363 kts 294°
2026-04-22 17:10 -22.70201 -46.74195 16050 ft 363 kts 294°
2026-04-22 17:10 -22.69097 -46.76652 16051 ft 363 kts 294°
2026-04-22 17:10 -22.67995 -46.79105 16051 ft 363 kts 294°
2026-04-22 17:10 -22.66891 -46.81563 16047 ft 363 kts 294°
2026-04-22 17:11 -22.65801 -46.83987 16045 ft 362 kts 295°
2026-04-22 17:11 -22.64698 -46.86439 16046 ft 362 kts 294°
2026-04-22 17:11 -22.63594 -46.88893 16047 ft 362 kts 294°
2026-04-22 17:11 -22.62489 -46.91348 16044 ft 362 kts 295°
2026-04-22 17:12 -22.61384 -46.93803 16045 ft 362 kts 294°
2026-04-22 17:12 -22.60281 -46.96251 16045 ft 362 kts 294°
2026-04-22 17:12 -22.59172 -46.98712 16045 ft 363 kts 295°
2026-04-22 17:12 -22.58067 -47.01163 16044 ft 363 kts 295°
2026-04-22 17:13 -22.56961 -47.03617 16045 ft 363 kts 295°
2026-04-22 17:13 -22.55869 -47.06047 16046 ft 363 kts 294°
2026-04-22 17:13 -22.54935 -47.08575 16046 ft 362 kts 286°
2026-04-22 17:13 -22.54235 -47.11184 16041 ft 361 kts 284°
2026-04-22 17:14 -22.53581 -47.13823 16045 ft 361 kts 284°
2026-04-22 17:14 -22.52938 -47.16451 16046 ft 361 kts 284°
2026-04-22 17:14 -22.52296 -47.19061 16044 ft 361 kts 284°
2026-04-22 17:14 -22.51644 -47.21701 16045 ft 362 kts 284°
2026-04-22 17:15 -22.51212 -47.23441 16045 ft 362 kts 284°
2026-04-22 17:15 -22.50340 -47.26954 16044 ft 362 kts 284°
2026-04-22 17:15 -22.49686 -47.29583 16046 ft 362 kts 284°
2026-04-22 17:15 -22.49031 -47.32210 16046 ft 362 kts 284°
2026-04-22 17:16 -22.48376 -47.34836 16045 ft 362 kts 284°
2026-04-22 17:16 -22.47729 -47.37430 16044 ft 362 kts 284°
2026-04-22 17:16 -22.47071 -47.40058 16023 ft 361 kts 284°
2026-04-22 17:16 -22.46424 -47.42646 15787 ft 349 kts 284°
2026-04-22 17:17 -22.45802 -47.45128 15515 ft 336 kts 284°
2026-04-22 17:17 -22.45194 -47.47554 14979 ft 333 kts 284°
2026-04-22 17:17 -22.44591 -47.49964 14450 ft 331 kts 283°
2026-04-22 17:17 -22.43992 -47.52357 13952 ft 328 kts 284°
2026-04-22 17:18 -22.43320 -47.54709 13415 ft 327 kts 291°
2026-04-22 17:18 -22.42154 -47.56806 12913 ft 328 kts 310°
2026-04-22 17:18 -22.40495 -47.58504 12417 ft 327 kts 319°
2026-04-22 17:18 -22.38729 -47.60045 11908 ft 325 kts 320°
2026-04-22 17:19 -22.35201 -47.63062 10931 ft 321 kts 320°
2026-04-22 17:19 -22.31808 -47.65980 10392 ft 298 kts 320°
2026-04-22 17:20 -22.28683 -47.68680 9844 ft 280 kts 320°
2026-04-22 17:20 -22.25673 -47.71288 9043 ft 277 kts 320°
2026-04-22 17:21 -22.24178 -47.72583 8672 ft 274 kts 320°
2026-04-22 17:21 -22.21235 -47.75135 7921 ft 268 kts 320°
2026-04-22 17:22 -22.18837 -47.77211 7318 ft 263 kts 320°
2026-04-22 17:22 -22.17419 -47.78436 6968 ft 260 kts 321°
2026-04-22 17:22 -22.14785 -47.80713 6125 ft 251 kts 321°
2026-04-22 17:23 -22.13408 -47.81905 5769 ft 257 kts 321°
2026-04-22 17:23 -22.10630 -47.84305 5083 ft 254 kts 321°
2026-04-22 17:23 -22.09250 -47.85496 4736 ft 254 kts 321°
2026-04-22 17:24 -22.07882 -47.86676 4404 ft 257 kts 321°
2026-04-22 17:24 -22.06455 -47.87906 4272 ft 261 kts 321°
2026-04-22 17:24 -22.05101 -47.89074 4266 ft 238 kts 321°
2026-04-22 17:24 -22.03830 -47.90093 4288 ft 216 kts 329°
2026-04-22 17:25 -22.02503 -47.90602 4212 ft 192 kts 352°
2026-04-22 17:25 -22.01266 -47.90670 4194 ft 164 kts 360°
2026-04-22 17:25 -22.00198 -47.90652 4175 ft 147 kts
2026-04-22 17:25 -21.99187 -47.90625 4181 ft 144 kts
2026-04-22 17:26 -21.98187 -47.90600 4167 ft 144 kts
2026-04-22 17:26 -21.97187 -47.90577 4163 ft 144 kts
2026-04-22 17:26 -21.96201 -47.90555 4158 ft 137 kts
2026-04-22 17:26 -21.95270 -47.90535 4010 ft 132 kts
2026-04-22 17:27 -21.94370 -47.90517 3777 ft 131 kts
2026-04-22 17:27 -21.93460 -47.90498 3593 ft 130 kts
2026-04-22 17:27 -21.92550 -47.90480 3428 ft 130 kts
2026-04-22 17:27 -21.91645 -47.90463 3270 ft 130 kts
2026-04-22 17:28 -21.90743 -47.90445 3082 ft 129 kts
2026-04-22 17:28 -21.89855 -47.90426 2933 ft 129 kts
2026-04-22 17:28 -21.88955 -47.90407 2821 ft 129 kts
2026-04-22 17:28 -21.88054 -47.90386 2666 ft 129 kts
2026-04-22 17:29 -21.87301 -47.90375 2635 ft 71 kts
2026-04-22 17:29 -21.86958 -47.90367 2622 ft 25 kts
2026-04-22 17:29 -21.86805 -47.90363 2617 ft 19 kts
2026-04-22 17:29 -21.86716 -47.90334 2612 ft 11 kts 349°
2026-04-22 17:30 -21.86698 -47.90365 2611 ft 1 kts 239°
2026-04-22 17:30 -21.86721 -47.90368 2612 ft 8 kts 183°
2026-04-22 17:30 -21.86815 -47.90366 2618 ft 18 kts 177°
2026-04-22 17:30 -21.86951 -47.90367 2622 ft 20 kts 181°
2026-04-22 17:31 -21.87093 -47.90371 2623 ft 18 kts 181°
2026-04-22 17:31 -21.87150 -47.90304 2626 ft 13 kts 88°
2026-04-22 17:31 -21.87150 -47.90190 2617 ft 16 kts 90°
2026-04-22 17:31 -21.87118 -47.90120 2607 ft 6 kts 18°
2026-04-22 17:32 -21.87078 -47.90114 2610 ft 8 kts 15°
2026-04-22 17:32 -21.87012 -47.90039 2601 ft 14 kts 38°
2026-04-22 17:32 -21.86932 -47.90028 2594 ft 13 kts 356°
2026-04-22 17:32 -21.86823 -47.90018 2586 ft 16 kts 32°
2026-04-22 17:33 -21.86763 -47.89942 2566 ft 25 kts 55°
2026-04-22 17:33 -21.86564 -47.89690 2526 ft 28 kts 50°
2026-04-22 17:33 -21.86521 -47.89591 2540 ft 8 kts 93°
2026-04-22 17:33 -21.86523 -47.89535 2540 ft 0 kts 92°